User: anonymous   Login
Location: Unspecified
(0.0000°N, 0.0000°E)
Time: 23:22:08
(UTC+00:00)
Language:

TBA - TO BE ASSIGNED - Orbit

View from above orbital plane
View from above orbital plane
View from above satellite
View from above satellite

Ground track
Ground track

The orbit is defined by the following mean orbital elements,

1 67515U          26145.59563953 +.00000000 +00000-0 +88810-3 0 00008
2 67515  43.0029 240.0789 0001711 271.9665  88.0991 15.27602390    00
Epoch (UTC): 25 May 2026 14:17:43
Eccentricity: 0.0001711
inclination: 43.0029°
perigee height: 482 km
apogee height: 484 km
right ascension of ascending node: 240.0789°
argument of perigee: 271.9665°
revolutions per day: 15.27602390
mean anomaly at epoch: 88.0991°

The dashed part of the orbit path shows where the satellite is in the earth's shadow,  

DLR